Location: Eastchurch
(51.4000°N, 0.8667°E)
Time: 23:35:26
(UTC+00:00)

Cosmos 1980 Rocket - Pass Details

Date: 19 January 2026
Orbit: 829 x 847 km, 71.0° (Epoch: 7 February)

Event Time Altitude Azimuth Distance (km) Brightness Sun altitude
Rises 18:15:30 0° 331° (NNW) 3,384 5.6 -16.9°
Reaches altitude 10° 18:18:04 10° 338° (NNW) 2,448 4.7 -17.3°
Maximum altitude 18:23:25 44° 50° (NE) 1,146 2.5 -18.1°
Enters shadow 18:25:32 31° 99° (E) 1,433 2.9 -18.4°
